RYR32ED LPPR-EDDK

Flight info

Callsign RYR32ED
Flight time N/A
Altitude 34000
Route TURON P600 ASDEB DCT LOTEE DCT AZFIC UN741 NTS DCT GONEK DCT TABOV UN858 OQQAL DCT RANUX DCT VALEK DCT LUTAX UM163 DIK N853 ARCKY T853 IBESA T860 ERUKI
Aircraft B38M/M-SDE1FGHILORVWXY/HB1

Departure

Time 2026-05-06 18:36
Airport Francisco de Sá Carneiro Airport (LPPR)

Arrival

Time N/A
Airport Cologne Bonn Airport (EDDK)
Time Latitude Longitude Altitude Speed Heading
2026-05-06 18:17 41.23831 -8.67386 247 ft 0 kts 79°
2026-05-06 18:28 41.23828 -8.67408 246 ft 4 kts 85°
2026-05-06 18:28 41.23828 -8.67444 244 ft 4 kts 102°
2026-05-06 18:28 41.23839 -8.67474 242 ft 4 kts 139°
2026-05-06 18:29 41.23852 -8.67483 241 ft 1 kts 169°
2026-05-06 18:29 41.23855 -8.67484 241 ft 0 kts 169°
2026-05-06 18:32 41.23854 -8.67483 241 ft 1 kts 169°
2026-05-06 18:32 41.23832 -8.67478 241 ft 8 kts 169°
2026-05-06 18:33 41.23759 -8.67459 241 ft 13 kts 169°
2026-05-06 18:33 41.23672 -8.67438 240 ft 11 kts 176°
2026-05-06 18:33 41.23626 -8.67518 237 ft 15 kts 259°
2026-05-06 18:33 41.23609 -8.67629 235 ft 10 kts 259°
2026-05-06 18:34 41.23603 -8.67673 237 ft 0 kts 259°
2026-05-06 18:34 41.23603 -8.67674 237 ft 0 kts 259°
2026-05-06 18:34 41.23601 -8.67688 239 ft 4 kts 257°
2026-05-06 18:34 41.23585 -8.67751 237 ft 9 kts 251°
2026-05-06 18:35 41.23573 -8.67806 238 ft 1 kts 284°
2026-05-06 18:35 41.23590 -8.67818 238 ft 8 kts 347°
2026-05-06 18:35 41.23797 -8.67862 227 ft 65 kts 348°
2026-05-06 18:35 41.24470 -8.68036 210 ft 129 kts 348°
2026-05-06 18:36 41.25495 -8.68306 410 ft 159 kts 347°
2026-05-06 18:36 41.26553 -8.68590 1282 ft 153 kts 348°
2026-05-06 18:36 41.27591 -8.68854 2080 ft 151 kts 349°
2026-05-06 18:36 41.28651 -8.69112 2646 ft 167 kts 348°
2026-05-06 18:37 41.29875 -8.69422 3061 ft 190 kts 348°
2026-05-06 18:37 41.31257 -8.69790 3522 ft 214 kts 348°
2026-05-06 18:37 41.32797 -8.70204 4065 ft 233 kts 348°
2026-05-06 18:37 41.34414 -8.70649 4828 ft 244 kts 348°
2026-05-06 18:38 41.36143 -8.71104 5411 ft 262 kts 349°
2026-05-06 18:38 41.37977 -8.71584 6115 ft 272 kts 349°
2026-05-06 18:38 41.39848 -8.72076 6997 ft 277 kts 348°
2026-05-06 18:38 41.41770 -8.72562 7786 ft 283 kts 353°
2026-05-06 18:39 41.43753 -8.72399 8537 ft 289 kts 12°
2026-05-06 18:39 41.45749 -8.71887 9342 ft 295 kts 11°
2026-05-06 18:39 41.47779 -8.71388 10224 ft 297 kts 11°
2026-05-06 18:40 41.52083 -8.70308 11058 ft 334 kts 11°
2026-05-06 18:40 41.54415 -8.69720 11544 ft 347 kts 11°
2026-05-06 18:40 41.56794 -8.69119 12326 ft 349 kts 11°
2026-05-06 18:40 41.59193 -8.68511 13151 ft 352 kts 10°
2026-05-06 18:41 41.61609 -8.67898 13920 ft 355 kts 10°
2026-05-06 18:41 41.64054 -8.67277 14573 ft 360 kts 10°
2026-05-06 18:41 41.66495 -8.66656 15276 ft 362 kts 10°
2026-05-06 18:41 41.68989 -8.66022 15902 ft 368 kts 10°
2026-05-06 18:42 41.71517 -8.65378 16591 ft 371 kts 10°
2026-05-06 18:42 41.74070 -8.64727 17203 ft 376 kts 10°
2026-05-06 18:42 41.76661 -8.64067 17809 ft 380 kts 10°
2026-05-06 18:42 41.79265 -8.63401 18454 ft 383 kts 10°
2026-05-06 18:43 41.81907 -8.62727 18921 ft 389 kts 10°
2026-05-06 18:43 41.84565 -8.62047 19541 ft 389 kts 10°
2026-05-06 18:43 41.87244 -8.61362 20017 ft 395 kts 10°
2026-05-06 18:43 41.89949 -8.60668 20601 ft 395 kts 10°
2026-05-06 18:44 41.92659 -8.59974 21134 ft 399 kts 10°
2026-05-06 18:44 41.95364 -8.59281 21628 ft 402 kts 10°
2026-05-06 18:44 41.98124 -8.58572 22189 ft 405 kts 10°
2026-05-06 18:44 42.00903 -8.57857 22672 ft 409 kts 10°
2026-05-06 18:45 42.03701 -8.57138 23210 ft 411 kts 10°
2026-05-06 18:45 42.06525 -8.56434 23674 ft 414 kts
2026-05-06 18:45 42.09395 -8.56003 24109 ft 416 kts
2026-05-06 18:45 42.12286 -8.55565 24548 ft 419 kts
2026-05-06 18:46 42.15190 -8.55106 24982 ft 422 kts
2026-05-06 18:46 42.18118 -8.54635 25412 ft 425 kts
2026-05-06 18:46 42.21065 -8.54158 25834 ft 428 kts
2026-05-06 18:46 42.24027 -8.53677 26255 ft 430 kts
2026-05-06 18:47 42.27013 -8.53192 26648 ft 433 kts
2026-05-06 18:47 42.30019 -8.52703 27045 ft 436 kts
2026-05-06 18:47 42.33045 -8.52211 27377 ft 441 kts
2026-05-06 18:47 42.36098 -8.51712 27829 ft 442 kts
2026-05-06 18:48 42.39163 -8.51213 28171 ft 446 kts
2026-05-06 18:48 42.42256 -8.50707 28570 ft 448 kts
2026-05-06 18:48 42.45352 -8.50201 28959 ft 450 kts
2026-05-06 18:48 42.48476 -8.49656 29293 ft 454 kts 10°
2026-05-06 18:49 42.51483 -8.48351 29665 ft 456 kts 26°
2026-05-06 18:49 42.54128 -8.45979 30007 ft 458 kts 41°
2026-05-06 18:49 42.56571 -8.43185 30285 ft 461 kts 40°
2026-05-06 18:49 42.59023 -8.40357 30592 ft 463 kts 41°
2026-05-06 18:50 42.61468 -8.37498 30873 ft 465 kts 41°
2026-05-06 18:50 42.63912 -8.34613 31169 ft 467 kts 41°
2026-05-06 18:50 42.66338 -8.31737 31429 ft 470 kts 41°
2026-05-06 18:50 42.68802 -8.28812 31707 ft 472 kts 41°
2026-05-06 18:51 42.71283 -8.25862 31987 ft 474 kts 41°
2026-05-06 18:51 42.73768 -8.22906 32337 ft 474 kts 41°
2026-05-06 18:51 42.76246 -8.19951 32751 ft 473 kts 41°
2026-05-06 18:51 42.78725 -8.16995 33112 ft 473 kts 41°
2026-05-06 18:52 42.81198 -8.14041 33468 ft 473 kts 41°
2026-05-06 18:52 42.83671 -8.11085 33833 ft 473 kts 41°
2026-05-06 18:52 42.86148 -8.08121 34011 ft 475 kts 41°
2026-05-06 18:53 42.91094 -8.02191 33990 ft 472 kts 41°
2026-05-06 18:53 42.96022 -7.96270 33994 ft 472 kts 41°
2026-05-06 18:54 43.00940 -7.90347 33997 ft 471 kts 41°
2026-05-06 18:54 43.05851 -7.84421 33989 ft 471 kts 41°
2026-05-06 18:55 43.10760 -7.78483 33997 ft 471 kts 41°
2026-05-06 18:55 43.15632 -7.72578 33995 ft 471 kts 41°
2026-05-06 18:56 43.20534 -7.66622 33995 ft 469 kts 41°
2026-05-06 18:56 43.25402 -7.60694 34001 ft 468 kts 41°
2026-05-06 18:57 43.30263 -7.54761 34002 ft 467 kts 41°
2026-05-06 18:57 43.35111 -7.48832 34005 ft 467 kts 41°
2026-05-06 18:58 43.39958 -7.42890 34013 ft 466 kts 41°
2026-05-06 18:58 43.44787 -7.36958 34008 ft 465 kts 41°
2026-05-06 18:59 43.49580 -7.31057 34012 ft 465 kts 41°
2026-05-06 18:59 43.54401 -7.25107 34008 ft 465 kts 41°
2026-05-06 19:00 43.59215 -7.19152 34001 ft 464 kts 41°
2026-05-06 19:00 43.64016 -7.13201 34013 ft 463 kts 41°
2026-05-06 19:01 43.68779 -7.07284 34014 ft 462 kts 41°
2026-05-06 19:01 43.73563 -7.01328 34010 ft 462 kts 41°
2026-05-06 19:02 43.78338 -6.95368 34073 ft 463 kts 42°
2026-05-06 19:02 43.80729 -6.92380 34363 ft 463 kts 41°
2026-05-06 19:02 43.83120 -6.89388 34616 ft 464 kts 41°
2026-05-06 19:02 43.85522 -6.86379 34893 ft 464 kts 41°
2026-05-06 19:03 43.87888 -6.83411 35147 ft 465 kts 41°
2026-05-06 19:03 43.90291 -6.80394 35402 ft 466 kts 41°
2026-05-06 19:03 43.92693 -6.77373 35667 ft 466 kts 41°
2026-05-06 19:03 43.95095 -6.74351 35938 ft 466 kts 41°
2026-05-06 19:04 43.97498 -6.71323 36201 ft 466 kts 41°
2026-05-06 19:04 43.99900 -6.68293 36455 ft 466 kts 41°
2026-05-06 19:04 44.02299 -6.65263 36704 ft 467 kts 41°
2026-05-06 19:04 44.04707 -6.62219 36961 ft 467 kts 41°
2026-05-06 19:05 44.07108 -6.59180 37206 ft 467 kts 41°
2026-05-06 19:05 44.09508 -6.56138 37449 ft 467 kts 41°
2026-05-06 19:05 44.11907 -6.53095 37691 ft 466 kts 41°
2026-05-06 19:05 44.13497 -6.51076 37850 ft 466 kts 41°
2026-05-06 19:06 44.15889 -6.48035 38029 ft 466 kts 41°
2026-05-06 19:06 44.21454 -6.40947 38001 ft 465 kts 41°
2026-05-06 19:07 44.25458 -6.35837 38016 ft 466 kts 41°
2026-05-06 19:07 44.30206 -6.29763 38012 ft 465 kts 41°
2026-05-06 19:08 44.34976 -6.23648 38012 ft 465 kts 41°
2026-05-06 19:08 44.39747 -6.17517 38015 ft 465 kts 41°
2026-05-06 19:09 44.44512 -6.11379 38015 ft 465 kts 41°
2026-05-06 19:09 44.49283 -6.05222 38011 ft 465 kts 41°
2026-05-06 19:10 44.54009 -5.99109 38016 ft 465 kts 41°
2026-05-06 19:10 44.58763 -5.92948 38015 ft 465 kts 41°
2026-05-06 19:11 44.63515 -5.86773 38018 ft 465 kts 41°
2026-05-06 19:11 44.68192 -5.80461 38020 ft 466 kts 43°
2026-05-06 19:12 44.72835 -5.74096 38017 ft 466 kts 43°
2026-05-06 19:12 44.77473 -5.67739 38018 ft 466 kts 43°
2026-05-06 19:13 44.82113 -5.61363 38017 ft 466 kts 43°
2026-05-06 19:13 44.86728 -5.55007 38029 ft 466 kts 43°
2026-05-06 19:14 44.91357 -5.48616 38017 ft 465 kts 43°
2026-05-06 19:14 44.95982 -5.42215 38018 ft 466 kts 43°
2026-05-06 19:15 45.00605 -5.35803 38020 ft 465 kts 43°
2026-05-06 19:15 45.05222 -5.29384 38023 ft 465 kts 43°
2026-05-06 19:16 45.09807 -5.22993 38028 ft 465 kts 43°
2026-05-06 19:16 45.14411 -5.16560 38023 ft 465 kts 43°
2026-05-06 19:17 45.19012 -5.10117 38020 ft 465 kts 43°
2026-05-06 19:17 45.23609 -5.03663 38020 ft 465 kts 43°
2026-05-06 19:18 45.28202 -4.97200 38035 ft 465 kts 43°
2026-05-06 19:18 45.32786 -4.90734 38017 ft 464 kts 43°
2026-05-06 19:19 45.37336 -4.84300 38021 ft 464 kts 43°
2026-05-06 19:19 45.41909 -4.77818 38017 ft 464 kts 43°
2026-05-06 19:20 45.46480 -4.71323 38020 ft 464 kts 43°
2026-05-06 19:20 45.51050 -4.64814 38023 ft 463 kts 44°
2026-05-06 19:21 45.55606 -4.58309 38023 ft 463 kts 44°
2026-05-06 19:21 45.60129 -4.51835 38020 ft 463 kts 44°
2026-05-06 19:22 45.64678 -4.45308 38018 ft 463 kts 44°
2026-05-06 19:22 45.69223 -4.38772 38034 ft 463 kts 44°
2026-05-06 19:23 45.73761 -4.32229 38013 ft 463 kts 44°
2026-05-06 19:23 45.78293 -4.25678 38021 ft 463 kts 44°
2026-05-06 19:24 45.82827 -4.19110 38012 ft 463 kts 44°
2026-05-06 19:24 45.87357 -4.12530 38015 ft 463 kts 44°
2026-05-06 19:25 45.91848 -4.05991 38019 ft 463 kts 44°
2026-05-06 19:25 45.96359 -3.99408 38015 ft 462 kts 44°
2026-05-06 19:26 46.00869 -3.92807 38017 ft 462 kts 44°
2026-05-06 19:26 46.05377 -3.86195 38012 ft 462 kts 44°
2026-05-06 19:27 46.09883 -3.79569 38012 ft 462 kts 44°
2026-05-06 19:27 46.14381 -3.72939 38012 ft 462 kts 44°
2026-05-06 19:28 46.18871 -3.66303 38010 ft 462 kts 44°
2026-05-06 19:28 46.23333 -3.59694 38010 ft 462 kts 44°
2026-05-06 19:29 46.27813 -3.53039 38009 ft 462 kts 44°
2026-05-06 19:29 46.32289 -3.46376 38015 ft 462 kts 44°
2026-05-06 19:30 46.36764 -3.39697 38009 ft 461 kts 44°
2026-05-06 19:30 46.41235 -3.33010 38004 ft 461 kts 44°
2026-05-06 19:31 46.45700 -3.26316 38001 ft 461 kts 44°
2026-05-06 19:31 46.52363 -3.16297 37998 ft 461 kts 44°
2026-05-06 19:32 46.56749 -3.09503 37984 ft 461 kts 53°
2026-05-06 19:32 46.60058 -3.01506 37960 ft 463 kts 58°
2026-05-06 19:33 46.63324 -2.93438 38010 ft 463 kts 58°
2026-05-06 19:33 46.66573 -2.85328 37995 ft 463 kts 58°
2026-05-06 19:34 46.69788 -2.77278 37995 ft 462 kts 58°
2026-05-06 19:34 46.73016 -2.69169 37997 ft 462 kts 58°
2026-05-06 19:35 46.76241 -2.61043 37994 ft 462 kts 59°
2026-05-06 19:35 46.79461 -2.52905 37988 ft 462 kts 59°
2026-05-06 19:36 46.82672 -2.44766 37990 ft 462 kts 59°
2026-05-06 19:36 46.85876 -2.36685 37986 ft 462 kts 57°
2026-05-06 19:37 46.89261 -2.28706 37989 ft 462 kts 57°
2026-05-06 19:37 46.92055 -2.22055 37980 ft 462 kts 57°
2026-05-06 19:38 46.95979 -2.12684 37982 ft 462 kts 57°
2026-05-06 19:38 46.99330 -2.04656 37981 ft 462 kts 57°
2026-05-06 19:39 47.02541 -1.96485 37983 ft 462 kts 59°
2026-05-06 19:39 47.05713 -1.88276 37979 ft 462 kts 59°
2026-05-06 19:40 47.08861 -1.80118 37980 ft 462 kts 59°
2026-05-06 19:40 47.12026 -1.71894 37967 ft 462 kts 59°
2026-05-06 19:41 47.15184 -1.63666 37967 ft 462 kts 59°
2026-05-06 19:41 47.18696 -1.55770 37998 ft 462 kts 55°
2026-05-06 19:42 47.22249 -1.47899 37974 ft 461 kts 55°
2026-05-06 19:42 47.25780 -1.40004 37964 ft 462 kts 55°
2026-05-06 19:43 47.29304 -1.32097 37974 ft 462 kts 56°
2026-05-06 19:43 47.32822 -1.24182 37982 ft 462 kts 56°
2026-05-06 19:44 47.36320 -1.16286 37975 ft 462 kts 56°
2026-05-06 19:44 47.39832 -1.08340 37968 ft 462 kts 56°
2026-05-06 19:45 47.43337 -1.00384 37971 ft 462 kts 56°
2026-05-06 19:45 47.46835 -0.92421 37988 ft 462 kts 56°
2026-05-06 19:46 47.50331 -0.84440 37990 ft 462 kts 56°
2026-05-06 19:46 47.53820 -0.76451 37984 ft 462 kts 56°
2026-05-06 19:47 47.57305 -0.68448 37986 ft 462 kts 56°
2026-05-06 19:47 47.60764 -0.60482 37982 ft 462 kts 56°
2026-05-06 19:48 47.64239 -0.52455 37994 ft 462 kts 56°
2026-05-06 19:48 47.67711 -0.44412 37984 ft 462 kts 56°
2026-05-06 19:49 47.71174 -0.36364 37997 ft 462 kts 56°
2026-05-06 19:49 47.74612 -0.28353 37990 ft 462 kts 57°
2026-05-06 19:50 47.78062 -0.20290 37994 ft 462 kts 57°
2026-05-06 19:50 47.81506 -0.12217 37986 ft 462 kts 57°
2026-05-06 19:51 47.84949 -0.04122 37981 ft 462 kts 57°
2026-05-06 19:51 47.88380 0.03970 37992 ft 462 kts 57°
2026-05-06 19:52 47.91811 0.12086 37988 ft 462 kts 57°
2026-05-06 19:52 47.95233 0.20203 37991 ft 462 kts 57°
2026-05-06 19:53 47.98637 0.28302 37991 ft 462 kts 57°
2026-05-06 19:53 48.02057 0.36466 38006 ft 462 kts 57°
2026-05-06 19:54 48.05439 0.44558 37985 ft 462 kts 57°
2026-05-06 19:54 48.08842 0.52718 37976 ft 462 kts 57°
2026-05-06 19:55 48.12302 0.60832 37971 ft 461 kts 52°
2026-05-06 19:55 48.16176 0.68506 37978 ft 462 kts 52°
2026-05-06 19:56 48.19408 0.74865 37974 ft 462 kts 52°
2026-05-06 19:56 48.23296 0.82526 37977 ft 462 kts 52°
2026-05-06 19:57 48.27179 0.90197 37974 ft 462 kts 52°
2026-05-06 19:57 48.31072 0.97910 37972 ft 462 kts 52°
2026-05-06 19:58 48.34923 1.05562 37971 ft 462 kts 52°
2026-05-06 19:58 48.38795 1.13277 37966 ft 462 kts 52°
2026-05-06 19:59 48.42663 1.21004 37971 ft 462 kts 52°
2026-05-06 19:59 48.46526 1.28746 37970 ft 462 kts 52°
2026-05-06 20:00 48.50385 1.36500 37974 ft 463 kts 52°
2026-05-06 20:00 48.54248 1.44287 37969 ft 463 kts 52°
2026-05-06 20:01 48.58099 1.52070 37971 ft 463 kts 52°
2026-05-06 20:01 48.61944 1.59860 37964 ft 463 kts 52°
2026-05-06 20:02 48.65147 1.68159 37966 ft 461 kts 70°
2026-05-06 20:02 48.67416 1.77290 37942 ft 464 kts 69°
2026-05-06 20:03 48.69662 1.86487 37963 ft 466 kts 69°
2026-05-06 20:03 48.71883 1.95693 37967 ft 465 kts 69°
2026-05-06 20:04 48.74097 2.04909 37966 ft 465 kts 70°
2026-05-06 20:04 48.76022 2.14263 37979 ft 465 kts 75°
2026-05-06 20:05 48.77705 2.23678 37960 ft 466 kts 74°
2026-05-06 20:05 48.79430 2.33171 37964 ft 467 kts 74°
2026-05-06 20:06 48.81151 2.42668 37966 ft 467 kts 75°
2026-05-06 20:06 48.82862 2.52164 37963 ft 467 kts 75°
2026-05-06 20:07 48.84568 2.61673 37979 ft 467 kts 75°
2026-05-06 20:07 48.86261 2.71201 37961 ft 466 kts 75°
2026-05-06 20:08 48.87925 2.80722 37954 ft 466 kts 75°
2026-05-06 20:08 48.89576 2.90199 37952 ft 466 kts 75°
2026-05-06 20:09 48.91229 2.99745 37949 ft 466 kts 75°
2026-05-06 20:09 48.92871 3.09283 37948 ft 466 kts 76°
2026-05-06 20:10 48.94507 3.18831 37951 ft 467 kts 76°
2026-05-06 20:10 48.96137 3.28399 37950 ft 467 kts 76°
2026-05-06 20:11 48.97758 3.37962 37942 ft 467 kts 76°
2026-05-06 20:11 48.99361 3.47478 37949 ft 467 kts 76°
2026-05-06 20:12 49.00968 3.57073 37947 ft 467 kts 76°
2026-05-06 20:12 49.02567 3.66666 37947 ft 467 kts 76°
2026-05-06 20:13 49.04159 3.76274 37946 ft 467 kts 76°
2026-05-06 20:13 49.05742 3.85880 37943 ft 467 kts 76°
2026-05-06 20:14 49.07317 3.95495 37941 ft 467 kts 76°
2026-05-06 20:14 49.08885 4.05124 37941 ft 467 kts 76°
2026-05-06 20:15 49.10446 4.14761 37939 ft 467 kts 77°
2026-05-06 20:15 49.11990 4.24342 37941 ft 467 kts 77°
2026-05-06 20:16 49.13547 4.34046 37938 ft 467 kts 76°
2026-05-06 20:16 49.15825 4.43255 37934 ft 468 kts 68°
2026-05-06 20:17 49.18313 4.52462 37942 ft 469 kts 68°
2026-05-06 20:17 49.20807 4.61688 37923 ft 469 kts 68°
2026-05-06 20:18 49.23297 4.70935 37935 ft 469 kts 68°
2026-05-06 20:18 49.25756 4.80103 37920 ft 469 kts 68°
2026-05-06 20:19 49.28228 4.89354 37917 ft 469 kts 68°
2026-05-06 20:19 49.30695 4.98623 37923 ft 470 kts 68°
2026-05-06 20:20 49.33162 5.07931 37912 ft 470 kts 68°
2026-05-06 20:20 49.35619 5.17240 37920 ft 472 kts 69°
2026-05-06 20:21 49.38059 5.26519 37913 ft 472 kts 69°
2026-05-06 20:21 49.40506 5.35864 37903 ft 472 kts 69°
2026-05-06 20:22 49.42946 5.45220 37908 ft 472 kts 69°
2026-05-06 20:22 49.45384 5.54608 37901 ft 472 kts 69°
2026-05-06 20:23 49.47813 5.63996 37905 ft 472 kts 69°
2026-05-06 20:23 49.50305 5.73343 37895 ft 473 kts 63°
2026-05-06 20:24 49.52139 5.77517 37891 ft 471 kts 47°
2026-05-06 20:24 49.54565 5.80900 37899 ft 471 kts 35°
2026-05-06 20:24 49.60029 5.86558 37892 ft 474 kts 33°
2026-05-06 20:25 49.65518 5.92113 37897 ft 475 kts 33°
2026-05-06 20:25 49.71048 5.97693 37884 ft 475 kts 33°
2026-05-06 20:26 49.76583 6.03293 37893 ft 475 kts 33°
2026-05-06 20:26 49.82109 6.08896 37911 ft 475 kts 32°
2026-05-06 20:27 49.85016 6.11316 37894 ft 473 kts 20°
2026-05-06 20:27 49.88186 6.12581 37904 ft 470 kts
2026-05-06 20:27 49.94724 6.12942 37886 ft 471 kts 359°
2026-05-06 20:28 50.01246 6.13042 37888 ft 472 kts 359°
2026-05-06 20:28 50.07807 6.13092 37894 ft 471 kts 359°
2026-05-06 20:29 50.14354 6.13133 37887 ft 470 kts 359°
2026-05-06 20:29 50.20900 6.13171 37891 ft 470 kts 359°
2026-05-06 20:30 50.30615 6.14690 37891 ft 470 kts 22°
2026-05-06 20:31 50.36282 6.19865 37880 ft 473 kts 32°
2026-05-06 20:31 50.41808 6.25441 37878 ft 466 kts 33°
2026-05-06 20:32 50.47114 6.31056 37871 ft 456 kts 40°
2026-05-06 20:32 50.49261 6.34600 37875 ft 453 kts 56°
2026-05-06 20:32 50.50802 6.38903 37890 ft 452 kts 67°
2026-05-06 20:33 50.53389 6.47951 37884 ft 455 kts 67°
2026-05-06 20:33 50.55910 6.57083 37883 ft 455 kts 68°
2026-05-06 20:34 50.58401 6.66258 37884 ft 455 kts 68°
2026-05-06 20:34 50.60864 6.75371 37899 ft 455 kts 68°